| time (UTC) | temp F | wind direction | speed MPH | gust MPH | rain 1hr in | rain 24hr in | rain mn in | humidity % | barometer mb |
| 20260506221718 | 65 | 340 | 0.0 | 1.0 | 0.00 | 0.11 | 0.11 | 91 | 1007.5 |
| 20260506221216 | 65 | 19 | 0.0 | 0.0 | 0.00 | 0.11 | 0.11 | 92 | 1007.6 |
| 20260506220713 | 64 | 306 | 1.0 | 1.0 | 0.00 | 0.11 | 0.11 | 92 | 1007.1 |
| 20260506220208 | 65 | 325 | 0.0 | 1.0 | 0.00 | 0.11 | 0.11 | 93 | 1007.1 |
| 20260506215705 | 64 | 44 | 0.0 | 1.0 | 0.00 | 0.11 | 0.11 | 93 | 1007.0 |
| 20260506215200 | 64 | 332 | 0.0 | 0.0 | 0.00 | 0.11 | 0.11 | 92 | 1007.2 |
| 20260506214652 | 64 | 338 | 0.0 | 0.0 | 0.00 | 0.11 | 0.11 | 93 | 1007.0 |
| 20260506214149 | 64 | 342 | 1.0 | 2.0 | 0.00 | 0.11 | 0.11 | 92 | 1006.7 |
| 20260506213648 | 64 | 320 | 0.0 | 1.0 | 0.00 | 0.11 | 0.11 | 92 | 1007.1 |
| 20260506213144 | 64 | 15 | 1.0 | 2.0 | 0.00 | 0.11 | 0.11 | 93 | 1007.0 |
| 20260506212641 | 64 | 323 | 0.0 | 1.0 | 0.00 | 0.11 | 0.11 | 94 | 1007.0 |
| 20260506212136 | 64 | 262 | 1.0 | 2.0 | 0.00 | 0.11 | 0.11 | 92 | 1006.9 |
| 20260506211632 | 64 | 342 | 0.0 | 0.0 | 0.00 | 0.11 | 0.11 | 93 | 1006.9 |
| 20260506211129 | 64 | 329 | 0.0 | 0.0 | 0.00 | 0.11 | 0.11 | 93 | 1006.9 |
| 20260506210626 | 63 | 9 | 0.0 | 1.0 | 0.00 | 0.11 | 0.11 | 94 | 1006.9 |
| 20260506210122 | 63 | 326 | 0.0 | 1.0 | 0.00 | 0.11 | 0.11 | 94 | 1006.9 |
| 20260506205619 | 63 | 31 | 0.0 | 2.0 | 0.00 | 0.11 | 0.11 | 94 | 1006.8 |
| 20260506205114 | 63 | 298 | 1.0 | 1.0 | 0.00 | 0.11 | 0.11 | 94 | 1006.9 |
| 20260506204613 | 63 | 5 | 1.0 | 5.0 | 0.00 | 0.11 | 0.11 | 94 | 1006.9 |
| 20260506204109 | 63 | 21 | 0.0 | 1.0 | 0.00 | 0.11 | 0.11 | 95 | 1006.9 |
| 20260506203608 | 63 | 266 | 1.0 | 1.0 | 0.00 | 0.11 | 0.11 | 95 | 1006.7 |
| 20260506203104 | 63 | 33 | 0.0 | 2.0 | 0.00 | 0.11 | 0.11 | 95 | 1006.5 |
| 20260506202602 | 63 | 29 | 0.0 | 1.0 | 0.00 | 0.11 | 0.11 | 95 | 1006.5 |
| 20260506202058 | 63 | 316 | 0.0 | 0.0 | 0.00 | 0.11 | 0.11 | 96 | 1006.7 |
| 20260506201555 | 63 | 323 | 0.0 | 1.0 | 0.00 | 0.11 | 0.11 | 97 | 1006.6 |
| 20260506201052 | 62 | 23 | 0.0 | 0.0 | 0.00 | 0.11 | 0.11 | 97 | 1006.8 |
| 20260506200548 | 62 | 163 | 1.0 | 2.0 | 0.00 | 0.11 | 0.11 | 97 | 1006.9 |
| 20260506200045 | 62 | 298 | 1.0 | 2.0 | 0.00 | 0.11 | 0.11 | 98 | 1006.8 |
| 20260506195541 | 62 | 21 | 0.0 | 0.0 | 0.00 | 0.11 | 0.11 | 98 | 1006.8 |
| 20260506195038 | 62 | 320 | 0.0 | 1.0 | 0.00 | 0.11 | 0.11 | 98 | 1006.7 |
| 20260506194535 | 62 | 95 | 0.0 | 2.0 | 0.00 | 0.11 | 0.11 | 99 | 1007.2 |
| 20260506194031 | 62 | 98 | 0.0 | 1.0 | 0.00 | 0.11 | 0.11 | 98 | 1007.1 |
| 20260506193529 | 61 | 1 | 0.0 | 2.0 | 0.00 | 0.11 | 0.11 | 99 | 1006.9 |
| 20260506193026 | 61 | 98 | 0.0 | 0.0 | 0.00 | 0.11 | 0.11 | 99 | 1007.3 |
| 20260506192523 | 61 | 341 | 0.0 | 2.0 | 0.00 | 0.11 | 0.11 | 98 | 1007.4 |
| 20260506192019 | 61 | 243 | 3.0 | 6.0 | 0.00 | 0.11 | 0.11 | 98 | 1007.5 |
| 20260506191516 | 61 | 56 | 0.0 | 3.0 | 0.00 | 0.11 | 0.11 | 98 | 1007.6 |
| 20260506191012 | 61 | 248 | 0.0 | 3.0 | 0.00 | 0.11 | 0.11 | 98 | 1007.5 |
| 20260506190509 | 61 | 77 | 0.0 | 2.0 | 0.00 | 0.11 | 0.11 | 99 | 1007.5 |
| 20260506190006 | 61 | 178 | 1.0 | 1.0 | 0.00 | 0.11 | 0.11 | 98 | 1007.5 |
| 20260506185503 | 61 | 336 | 0.0 | 0.0 | 0.00 | 0.11 | 0.11 | 99 | 1007.4 |
| 20260506185000 | 61 | 330 | 0.0 | 0.0 | 0.00 | 0.11 | 0.11 | 99 | 1007.6 |
| 20260506184457 | 61 | 228 | 3.0 | 5.0 | 0.00 | 0.11 | 0.11 | 99 | 1007.5 |
| 20260506183954 | 61 | 208 | 0.0 | 2.0 | 0.00 | 0.11 | 0.11 | 99 | 1007.4 |
| 20260506183449 | 61 | 341 | 0.0 | 3.0 | 0.00 | 0.11 | 0.11 | 99 | 1007.3 |
| 20260506182946 | 62 | 328 | 0.0 | 0.0 | 0.05 | 0.11 | 0.11 | 99 | 1007.6 |
| 20260506182444 | 62 | 336 | 0.0 | 2.0 | 0.05 | 0.11 | 0.11 | 99 | 1007.8 |
| 20260506181941 | 62 | 327 | 0.0 | 0.0 | 0.00 | 0.10 | 0.10 | 98 | 1007.8 |
| 20260506181439 | 62 | 42 | 0.0 | 1.0 | 0.00 | 0.10 | 0.10 | 98 | 1007.4 |
| 20260506180936 | 62 | 110 | 1.0 | 2.0 | 0.00 | 0.10 | 0.10 | 98 | 1007.5 |
| 20260506180432 | 62 | 249 | 0.0 | 0.0 | 0.00 | 0.10 | 0.10 | 98 | 1007.7 |
| 20260506175929 | 62 | 342 | 0.0 | 2.0 | 0.00 | 0.10 | 0.10 | 98 | 1007.8 |
| 20260506175425 | 62 | 220 | 1.0 | 3.0 | 0.00 | 0.10 | 0.10 | 97 | 1007.6 |
| 20260506174917 | 62 | 284 | 0.0 | 2.0 | 0.00 | 0.10 | 0.10 | 97 | 1008.0 |
| 20260506174414 | 62 | 331 | 0.0 | 0.0 | 0.00 | 0.10 | 0.10 | 97 | 1008.0 |
| 20260506173912 | 62 | 300 | 0.0 | 3.0 | 0.00 | 0.10 | 0.10 | 97 | 1008.0 |
| 20260506173408 | 62 | 174 | 1.0 | 2.0 | 0.00 | 0.10 | 0.10 | 97 | 1008.3 |
| 20260506172906 | 63 | 7 | 1.0 | 3.0 | 0.00 | 0.10 | 0.10 | 97 | 1008.0 |
| 20260506172402 | 63 | 320 | 0.0 | 1.0 | 0.00 | 0.10 | 0.10 | 96 | 1008.1 |
| 20260506171859 | 63 | 41 | 0.0 | 2.0 | 0.00 | 0.10 | 0.10 | 96 | 1007.8 |
| 20260506171356 | 63 | 99 | 1.0 | 5.0 | 0.00 | 0.10 | 0.10 | 96 | 1007.7 |
| 20260506170853 | 62 | 165 | 0.0 | 1.0 | 0.00 | 0.10 | 0.10 | 96 | 1007.9 |
| 20260506170349 | 62 | 130 | 1.0 | 3.0 | 0.00 | 0.10 | 0.10 | 96 | 1007.9 |
| 20260506165844 | 62 | 126 | 1.0 | 2.0 | 0.00 | 0.10 | 0.10 | 97 | 1007.8 |
| 20260506165341 | 62 | 13 | 2.0 | 5.0 | 0.07 | 0.10 | 0.10 | 97 | 1007.9 |
| 20260506164837 | 62 | 111 | 0.0 | 3.0 | 0.07 | 0.10 | 0.10 | 97 | 1007.9 |
| 20260506164334 | 62 | 167 | 2.0 | 5.0 | 0.00 | 0.09 | 0.09 | 96 | 1008.3 |
| 20260506163832 | 62 | 72 | 0.0 | 1.0 | 0.07 | 0.09 | 0.09 | 96 | 1008.5 |
| 20260506163326 | 62 | 110 | 1.0 | 2.0 | 0.00 | 0.08 | 0.08 | 96 | 1009.0 |
| 20260506162821 | 62 | 94 | 1.0 | 1.0 | 0.05 | 0.08 | 0.08 | 97 | 1008.9 |
| 20260506162319 | 62 | 72 | 0.0 | 1.0 | 0.05 | 0.08 | 0.08 | 97 | 1009.1 |
| 20260506161816 | 62 | 1 | 0.0 | 1.0 | 0.07 | 0.07 | 0.07 | 97 | 1009.1 |
| 20260506161314 | 62 | 308 | 0.0 | 0.0 | 0.12 | 0.07 | 0.07 | 96 | 1009.2 |
| 20260506160812 | 62 | 335 | 0.0 | 0.0 | 0.12 | 0.06 | 0.06 | 96 | 1009.1 |
| 20260506160308 | 62 | 2 | 0.0 | 0.0 | 0.07 | 0.05 | 0.05 | 96 | 1009.2 |
| 20260506155807 | 62 | 329 | 0.0 | 0.0 | 0.05 | 0.04 | 0.04 | 96 | 1009.4 |
| 20260506155306 | 63 | 339 | 0.0 | 0.0 | 0.12 | 0.04 | 0.04 | 95 | 1009.7 |
| 20260506153415 | 64 | 18 | 0.0 | 2.0 | 0.07 | 0.01 | 0.01 | 89 | 1009.1 |
| 20260506152913 | 64 | 345 | 1.0 | 1.0 | 0.00 | 0.00 | 0.00 | 88 | 1009.2 |
| 20260506152409 | 64 | 281 | 0.0 | 1.0 | 0.00 | 0.00 | 0.00 | 86 | 1009.2 |
| 20260506151908 | 65 | 324 | 0.0 | 1.0 | 0.00 | 0.00 | 0.00 | 85 | 1009.1 |
| 20260506151404 | 65 | 282 | 0.0 | 2.0 | 0.00 | 0.00 | 0.00 | 84 | 1009.4 |
| 20260506150902 | 65 | 279 | 1.0 | 2.0 | 0.00 | 0.00 | 0.00 | 82 | 1009.2 |
| 20260506150358 | 65 | 295 | 0.0 | 5.0 | 0.00 | 0.00 | 0.00 | 82 | 1009.1 |
| 20260506145855 | 66 | 349 | 1.0 | 2.0 | 0.00 | 0.00 | 0.00 | 81 | 1009.1 |
| 20260506145351 | 66 | 178 | 1.0 | 3.0 | 0.00 | 0.00 | 0.00 | 78 | 1009.5 |
| 20260506144849 | 67 | 246 | 1.0 | 1.0 | 0.00 | 0.00 | 0.00 | 77 | 1009.4 |
| 20260506144345 | 67 | 278 | 3.0 | 3.0 | 0.00 | 0.00 | 0.00 | 75 | 1009.5 |
| 20260506143844 | 68 | 203 | 1.0 | 7.0 | 0.00 | 0.00 | 0.00 | 74 | 1009.7 |
| 20260506143340 | 68 | 341 | 0.0 | 3.0 | 0.00 | 0.00 | 0.00 | 73 | 1009.5 |
| 20260506142839 | 68 | 288 | 1.0 | 5.0 | 0.00 | 0.00 | 0.00 | 72 | 1009.3 |
| 20260506142336 | 68 | 157 | 1.0 | 2.0 | 0.00 | 0.00 | 0.00 | 74 | 1009.3 |
| 20260506141835 | 68 | 225 | 5.0 | 6.0 | 0.00 | 0.00 | 0.00 | 73 | 1009.3 |
| 20260506141332 | 69 | 119 | 0.0 | 5.0 | 0.00 | 0.00 | 0.00 | 74 | 1009.4 |
| 20260506140830 | 69 | 11 | 1.0 | 5.0 | 0.00 | 0.00 | 0.00 | 74 | 1009.3 |
| 20260506140327 | 68 | 291 | 1.0 | 2.0 | 0.00 | 0.00 | 0.00 | 74 | 1009.3 |
| 20260506135824 | 67 | 209 | 3.0 | 7.0 | 0.00 | 0.00 | 0.00 | 76 | 1009.1 |
| 20260506135320 | 67 | 355 | 1.0 | 3.0 | 0.00 | 0.00 | 0.00 | 76 | 1009.3 |
| 20260506134817 | 67 | 42 | 0.0 | 2.0 | 0.00 | 0.00 | 0.00 | 76 | 1009.3 |
| 20260506134313 | 67 | 239 | 1.0 | 3.0 | 0.00 | 0.00 | 0.00 | 76 | 1009.3 |
| 20260506133810 | 67 | 91 | 1.0 | 5.0 | 0.00 | 0.00 | 0.00 | 76 | 1009.1 |
| 20260506133307 | 67 | 97 | 3.0 | 6.0 | 0.00 | 0.00 | 0.00 | 75 | 1009.2 |
| 20260506132804 | 67 | 167 | 0.0 | 3.0 | 0.00 | 0.00 | 0.00 | 75 | 1009.6 |
| 20260506132301 | 67 | 138 | 1.0 | 2.0 | 0.00 | 0.00 | 0.00 | 75 | 1009.6 |
| 20260506131759 | 67 | 168 | 1.0 | 2.0 | 0.00 | 0.00 | 0.00 | 76 | 1009.5 |
| 20260506131254 | 67 | 342 | 1.0 | 3.0 | 0.00 | 0.00 | 0.00 | 75 | 1009.6 |
| 20260506130752 | 67 | 254 | 1.0 | 3.0 | 0.00 | 0.00 | 0.00 | 76 | 1009.6 |
| 20260506130249 | 67 | 327 | 0.0 | 2.0 | 0.00 | 0.00 | 0.00 | 76 | 1009.5 |
| 20260506125747 | 66 | 172 | 2.0 | 2.0 | 0.00 | 0.00 | 0.00 | 76 | 1009.5 |
| 20260506125244 | 66 | 7 | 1.0 | 9.0 | 0.00 | 0.00 | 0.00 | 77 | 1009.5 |
| 20260506124743 | 66 | 288 | 1.0 | 6.0 | 0.00 | 0.00 | 0.00 | 77 | 1009.4 |
| 20260506124240 | 66 | 214 | 1.0 | 3.0 | 0.00 | 0.00 | 0.00 | 77 | 1009.2 |
| 20260506123737 | 66 | 57 | 1.0 | 9.0 | 0.00 | 0.00 | 0.00 | 77 | 1009.3 |
| 20260506123236 | 66 | 158 | 3.0 | 5.0 | 0.00 | 0.00 | 0.00 | 77 | 1009.2 |
| 20260506122732 | 65 | 205 | 4.0 | 9.0 | 0.00 | 0.00 | 0.00 | 77 | 1009.2 |
| 20260506122229 | 65 | 196 | 2.0 | 5.0 | 0.00 | 0.00 | 0.00 | 79 | 1009.4 |
| 20260506121728 | 65 | 94 | 3.0 | 3.0 | 0.00 | 0.00 | 0.00 | 79 | 1009.5 |
| 20260506121224 | 64 | 20 | 2.0 | 3.0 | 0.00 | 0.00 | 0.00 | 79 | 1009.4 |
| 20260506120722 | 64 | 106 | 2.0 | 3.0 | 0.00 | 0.00 | 0.00 | 80 | 1009.7 |
| 20260506120219 | 64 | 173 | 0.0 | 2.0 | 0.00 | 0.00 | 0.00 | 81 | 1009.3 |
| 20260506115717 | 64 | 110 | 1.0 | 3.0 | 0.00 | 0.00 | 0.00 | 81 | 1009.4 |
| 20260506115215 | 64 | 124 | 1.0 | 6.0 | 0.00 | 0.00 | 0.00 | 81 | 1009.4 |
| 20260506114712 | 64 | 151 | 4.0 | 7.0 | 0.00 | 0.00 | 0.00 | 80 | 1009.4 |
| 20260506114209 | 64 | 331 | 2.0 | 9.0 | 0.00 | 0.00 | 0.00 | 80 | 1009.6 |
| 20260506113708 | 64 | 207 | 3.0 | 6.0 | 0.00 | 0.00 | 0.00 | 80 | 1009.7 |
| 20260506113205 | 64 | 67 | 1.0 | 6.0 | 0.00 | 0.00 | 0.00 | 80 | 1009.6 |
| 20260506112701 | 65 | 178 | 2.0 | 5.0 | 0.00 | 0.00 | 0.00 | 80 | 1009.7 |
| 20260506112159 | 65 | 224 | 2.0 | 5.0 | 0.00 | 0.00 | 0.00 | 80 | 1009.5 |
| 20260506111656 | 65 | 110 | 2.0 | 5.0 | 0.00 | 0.00 | 0.00 | 79 | 1009.4 |
| 20260506111154 | 65 | 207 | 4.0 | 5.0 | 0.00 | 0.00 | 0.00 | 80 | 1009.7 |
| 20260506110651 | 64 | 132 | 1.0 | 6.0 | 0.00 | 0.00 | 0.00 | 82 | 1009.6 |
| 20260506110148 | 64 | 68 | 3.0 | 5.0 | 0.00 | 0.00 | 0.00 | 82 | 1009.5 |
| 20260506105645 | 64 | 76 | 2.0 | 7.0 | 0.00 | 0.00 | 0.00 | 82 | 1009.4 |
| 20260506105142 | 64 | 313 | 2.0 | 3.0 | 0.00 | 0.00 | 0.00 | 82 | 1009.7 |
| 20260506104640 | 64 | 92 | 7.0 | 10.0 | 0.00 | 0.00 | 0.00 | 82 | 1009.7 |
| 20260506104137 | 63 | 148 | 2.0 | 2.0 | 0.00 | 0.00 | 0.00 | 83 | 1009.5 |
| 20260506103634 | 62 | 146 | 3.0 | 5.0 | 0.00 | 0.00 | 0.00 | 85 | 1009.3 |
| 20260506103131 | 62 | 212 | 1.0 | 2.0 | 0.00 | 0.00 | 0.00 | 85 | 1009.4 |
| 20260506102629 | 62 | 161 | 2.0 | 7.0 | 0.00 | 0.00 | 0.00 | 85 | 1009.3 |
| 20260506102126 | 62 | 95 | 3.0 | 8.0 | 0.00 | 0.00 | 0.00 | 85 | 1009.4 |
| 20260506101623 | 62 | 119 | 1.0 | 6.0 | 0.00 | 0.00 | 0.00 | 85 | 1009.4 |
| 20260506101120 | 62 | 210 | 1.0 | 5.0 | 0.00 | 0.00 | 0.00 | 85 | 1009.2 |
| 20260506100619 | 62 | 170 | 1.0 | 3.0 | 0.00 | 0.00 | 0.00 | 85 | 1009.6 |
| 20260506100116 | 62 | 249 | 1.0 | 5.0 | 0.00 | 0.00 | 0.00 | 85 | 1009.4 |
| 20260506095615 | 62 | 134 | 1.0 | 5.0 | 0.00 | 0.00 | 0.00 | 84 | 1009.3 |
| 20260506095111 | 63 | 69 | 1.0 | 3.0 | 0.00 | 0.00 | 0.00 | 85 | 1009.1 |
| 20260506094608 | 62 | 113 | 3.0 | 9.0 | 0.00 | 0.00 | 0.00 | 85 | 1009.3 |
| 20260506094106 | 62 | 201 | 1.0 | 5.0 | 0.00 | 0.00 | 0.00 | 85 | 1009.2 |
| 20260506093604 | 62 | 211 | 2.0 | 5.0 | 0.00 | 0.00 | 0.00 | 85 | 1009.1 |
| 20260506093101 | 63 | 104 | 2.0 | 3.0 | 0.00 | 0.00 | 0.00 | 85 | 1009.4 |
| 20260506092559 | 62 | 169 | 2.0 | 3.0 | 0.00 | 0.00 | 0.00 | 86 | 1009.5 |
| 20260506092055 | 63 | 172 | 1.0 | 7.0 | 0.00 | 0.00 | 0.00 | 85 | 1009.2 |
| 20260506091554 | 62 | 73 | 1.0 | 5.0 | 0.00 | 0.00 | 0.00 | 85 | 1009.4 |
| 20260506091051 | 62 | 168 | 3.0 | 5.0 | 0.00 | 0.00 | 0.00 | 85 | 1009.4 |
| 20260506090549 | 62 | 99 | 2.0 | 3.0 | 0.00 | 0.00 | 0.00 | 86 | 1009.7 |
| 20260506090045 | 63 | 149 | 2.0 | 7.0 | 0.00 | 0.00 | 0.00 | 85 | 1009.6 |
| 20260506085542 | 63 | 156 | 3.0 | 3.0 | 0.00 | 0.00 | 0.00 | 85 | 1009.3 |
| 20260506085038 | 63 | 353 | 2.0 | 3.0 | 0.00 | 0.00 | 0.00 | 85 | 1009.3 |
| 20260506084535 | 63 | 183 | 4.0 | 5.0 | 0.00 | 0.00 | 0.00 | 85 | 1009.3 |
| 20260506084031 | 63 | 288 | 0.0 | 10.0 | 0.00 | 0.00 | 0.00 | 85 | 1009.7 |
| 20260506083529 | 63 | 61 | 1.0 | 2.0 | 0.00 | 0.00 | 0.00 | 85 | 1009.5 |
| 20260506083026 | 63 | 132 | 3.0 | 6.0 | 0.00 | 0.00 | 0.00 | 84 | 1009.4 |
| 20260506082523 | 63 | 28 | 1.0 | 6.0 | 0.00 | 0.00 | 0.00 | 84 | 1009.3 |
| 20260506082018 | 63 | 142 | 4.0 | 7.0 | 0.00 | 0.00 | 0.00 | 84 | 1009.5 |
| 20260506081517 | 63 | 232 | 2.0 | 5.0 | 0.00 | 0.00 | 0.00 | 84 | 1009.4 |
| 20260506081014 | 64 | 136 | 1.0 | 1.0 | 0.00 | 0.00 | 0.00 | 83 | 1009.7 |
| 20260506080511 | 64 | 38 | 1.0 | 5.0 | 0.00 | 0.00 | 0.00 | 84 | 1009.6 |
| 20260506073454 | 64 | 261 | 2.0 | 8.0 | 0.00 | 0.00 | 0.00 | 83 | 1009.5 |
| 20260506072952 | 64 | 259 | 1.0 | 5.0 | 0.00 | 0.00 | 0.00 | 83 | 1009.7 |
| 20260506072449 | 64 | 101 | 2.0 | 5.0 | 0.00 | 0.00 | 0.00 | 82 | 1009.7 |
| 20260506071947 | 64 | 210 | 1.0 | 6.0 | 0.00 | 0.00 | 0.00 | 82 | 1009.6 |
| 20260506071444 | 64 | 134 | 2.0 | 3.0 | 0.00 | 0.00 | 0.00 | 82 | 1009.6 |
| 20260506070941 | 64 | 106 | 5.0 | 7.0 | 0.00 | 0.00 | 0.00 | 82 | 1009.5 |
| 20260506070438 | 64 | 90 | 2.0 | 5.0 | 0.00 | 0.00 | 0.00 | 82 | 1009.5 |
| 20260506062416 | 64 | 94 | 1.0 | 2.0 | 0.00 | 0.00 | 0.00 | 80 | 1009.9 |
| 20260506061911 | 65 | 187 | 1.0 | 2.0 | 0.00 | 0.00 | 0.00 | 79 | 1010.0 |
| 20260506061408 | 64 | 50 | 2.0 | 2.0 | 0.00 | 0.00 | 0.00 | 79 | 1010.1 |
| 20260506060906 | 65 | 81 | 2.0 | 2.0 | 0.00 | 0.00 | 0.00 | 79 | 1010.0 |
| 20260506060404 | 65 | 236 | 1.0 | 3.0 | 0.00 | 0.00 | 0.00 | 78 | 1010.0 |
| 20260506051336 | 66 | 178 | 3.0 | 6.0 | 0.00 | 0.00 | 0.00 | 75 | 1010.4 |
| 20260506050833 | 66 | 85 | 1.0 | 2.0 | 0.00 | 0.00 | 0.00 | 75 | 1010.4 |
| 20260506050331 | 65 | 73 | 1.0 | 2.0 | 0.00 | 0.00 | 0.00 | 75 | 1010.2 |
| 20260506044821 | 65 | 66 | 2.0 | 2.0 | 0.00 | 0.00 | 0.00 | 74 | 1010.5 |
| 20260506044319 | 66 | 105 | 2.0 | 2.0 | 0.00 | 0.00 | 0.00 | 74 | 1010.4 |
| 20260506043816 | 66 | 101 | 1.0 | 2.0 | 0.00 | 0.00 | 0.00 | 74 | 1010.6 |
| 20260506043313 | 66 | 161 | 4.0 | 6.0 | 0.00 | 0.00 | 0.00 | 73 | 1010.4 |
| 20260506042812 | 66 | 122 | 1.0 | 1.0 | 0.00 | 0.00 | 0.00 | 72 | 1010.5 |
| 20260506042310 | 66 | 159 | 3.0 | 5.0 | 0.00 | 0.00 | 0.00 | 72 | 1010.5 |
| 20260506041809 | 66 | 61 | 1.0 | 2.0 | 0.00 | 0.00 | 0.00 | 72 | 1010.4 |
| 20260506041305 | 66 | 85 | 1.0 | 2.0 | 0.00 | 0.00 | 0.00 | 72 | 1010.4 |
| 20260506040802 | 66 | 17 | 1.0 | 2.0 | 0.00 | 0.00 | 0.00 | 71 | 1010.5 |
| 20260506040259 | 67 | 199 | 0.0 | 3.0 | 0.00 | 0.00 | 0.00 | 71 | 1010.3 |
| 20260506035756 | 66 | 93 | 1.0 | 2.0 | 0.00 | 0.00 | 0.00 | 71 | 1010.4 |
| 20260506035253 | 67 | 93 | 0.0 | 1.0 | 0.00 | 0.00 | 0.00 | 70 | 1010.4 |
| 20260506034750 | 67 | 303 | 1.0 | 3.0 | 0.00 | 0.00 | 0.00 | 69 | 1010.3 |
| 20260506034247 | 67 | 5 | 1.0 | 5.0 | 0.00 | 0.00 | 0.00 | 69 | 1010.1 |
| 20260506033744 | 67 | 117 | 1.0 | 2.0 | 0.00 | 0.00 | 0.00 | 70 | 1010.4 |
| 20260506033241 | 67 | 216 | 1.0 | 6.0 | 0.00 | 0.00 | 0.00 | 68 | 1010.4 |
| 20260506032738 | 67 | 0 | 0.0 | 2.0 | 0.00 | 0.00 | 0.00 | 69 | 1010.6 |
| 20260506032235 | 67 | 104 | 2.0 | 2.0 | 0.00 | 0.00 | 0.00 | 69 | 1010.4 |
| 20260506031732 | 67 | 69 | 3.0 | 5.0 | 0.00 | 0.00 | 0.00 | 68 | 1010.3 |
| 20260506031229 | 68 | 75 | 1.0 | 3.0 | 0.00 | 0.00 | 0.00 | 68 | 1010.4 |
| 20260506030727 | 68 | 230 | 2.0 | 9.0 | 0.00 | 0.00 | 0.00 | 67 | 1010.3 |
| 20260506030225 | 68 | 112 | 2.0 | 2.0 | 0.00 | 0.00 | 0.00 | 67 | 1010.3 |
| 20260506025721 | 68 | 129 | 2.0 | 3.0 | 0.00 | 0.00 | 0.00 | 68 | 1010.5 |
| 20260506025218 | 68 | 73 | 2.0 | 5.0 | 0.00 | 0.00 | 0.00 | 67 | 1010.4 |
| 20260506024715 | 68 | 111 | 1.0 | 5.0 | 0.00 | 0.00 | 0.00 | 67 | 1010.3 |
| 20260506024211 | 68 | 239 | 1.0 | 2.0 | 0.00 | 0.00 | 0.00 | 67 | 1010.6 |
| 20260506023707 | 68 | 103 | 4.0 | 7.0 | 0.00 | 0.00 | 0.00 | 66 | 1010.4 |
| 20260506023205 | 68 | 112 | 4.0 | 7.0 | 0.00 | 0.00 | 0.00 | 66 | 1010.3 |
| 20260506022656 | 69 | 249 | 3.0 | 6.0 | 0.00 | 0.00 | 0.00 | 65 | 1010.3 |
| 20260506022154 | 69 | 54 | 2.0 | 2.0 | 0.00 | 0.00 | 0.00 | 66 | 1010.5 |
| 20260506021652 | 69 | 165 | 2.0 | 6.0 | 0.00 | 0.00 | 0.00 | 65 | 1010.6 |
| 20260506021148 | 69 | 172 | 4.0 | 8.0 | 0.00 | 0.00 | 0.00 | 65 | 1010.3 |
| 20260506020645 | 69 | 84 | 1.0 | 3.0 | 0.00 | 0.00 | 0.00 | 65 | 1010.4 |
| 20260506020143 | 69 | 348 | 0.0 | 1.0 | 0.00 | 0.00 | 0.00 | 65 | 1010.4 |
| 20260506015640 | 69 | 76 | 2.0 | 5.0 | 0.00 | 0.00 | 0.00 | 64 | 1010.5 |
| 20260506015137 | 69 | 61 | 2.0 | 5.0 | 0.00 | 0.00 | 0.00 | 64 | 1010.2 |
| 20260506014635 | 69 | 181 | 3.0 | 6.0 | 0.00 | 0.00 | 0.00 | 64 | 1010.3 |
| 20260506014130 | 69 | 152 | 1.0 | 2.0 | 0.00 | 0.00 | 0.00 | 64 | 1010.3 |
| 20260506013629 | 70 | 251 | 2.0 | 3.0 | 0.00 | 0.00 | 0.00 | 63 | 1010.3 |
| 20260506013125 | 70 | 210 | 1.0 | 5.0 | 0.00 | 0.00 | 0.00 | 62 | 1010.2 |
| 20260506012621 | 71 | 223 | 3.0 | 6.0 | 0.00 | 0.00 | 0.00 | 61 | 1010.3 |
| 20260506012112 | 71 | 209 | 3.0 | 6.0 | 0.00 | 0.00 | 0.00 | 60 | 1010.2 |
| 20260506011610 | 71 | 111 | 3.0 | 6.0 | 0.00 | 0.00 | 0.00 | 59 | 1010.0 |
| 20260506011106 | 71 | 136 | 5.0 | 8.0 | 0.00 | 0.00 | 0.00 | 57 | 1010.0 |
| 20260506010605 | 72 | 203 | 1.0 | 2.0 | 0.00 | 0.00 | 0.00 | 56 | 1009.9 |
| 20260506005559 | 73 | 237 | 3.0 | 5.0 | 0.00 | 0.00 | 0.00 | 53 | 1009.7 |
| 20260506005054 | 73 | 357 | 1.0 | 5.0 | 0.00 | 0.00 | 0.00 | 52 | 1009.6 |
| 20260506004552 | 73 | 355 | 1.0 | 3.0 | 0.00 | 0.00 | 0.00 | 51 | 1009.3 |
| 20260506004048 | 73 | 244 | 1.0 | 5.0 | 0.00 | 0.00 | 0.00 | 51 | 1009.5 |
| 20260506003545 | 73 | 210 | 1.0 | 1.0 | 0.00 | 0.00 | 0.00 | 50 | 1009.4 |
| 20260506003041 | 74 | 92 | 1.0 | 3.0 | 0.00 | 0.00 | 0.00 | 49 | 1009.1 |
| 20260506002537 | 74 | 187 | 2.0 | 6.0 | 0.00 | 0.00 | 0.00 | 50 | 1009.3 |
| 20260506002033 | 74 | 210 | 4.0 | 6.0 | 0.00 | 0.00 | 0.00 | 49 | 1009.2 |
| 20260506001530 | 74 | 16 | 1.0 | 3.0 | 0.00 | 0.00 | 0.00 | 50 | 1009.1 |
| 20260506001027 | 74 | 111 | 1.0 | 2.0 | 0.00 | 0.00 | 0.00 | 49 | 1009.1 |
| 20260506000525 | 75 | 138 | 1.0 | 3.0 | 0.00 | 0.00 | 0.00 | 49 | 1009.2 |
| 20260506000022 | 74 | 92 | 0.0 | 1.0 | 0.00 | 0.00 | 0.00 | 50 | 1009.0 |
| 20260505235520 | 74 | 168 | 2.0 | 5.0 | 0.00 | 0.00 | 0.00 | 49 | 1008.8 |
| 20260505235016 | 75 | 140 | 1.0 | 3.0 | 0.00 | 0.00 | 0.00 | 49 | 1009.2 |
| 20260505234513 | 75 | 235 | 2.0 | 3.0 | 0.00 | 0.00 | 0.00 | 48 | 1009.0 |
| 20260505234010 | 75 | 334 | 0.0 | 2.0 | 0.00 | 0.00 | 0.00 | 49 | 1008.9 |
| 20260505233508 | 76 | 68 | 0.0 | 2.0 | 0.00 | 0.00 | 0.00 | 48 | 1008.8 |
| 20260505233005 | 76 | 167 | 1.0 | 8.0 | 0.00 | 0.00 | 0.00 | 48 | 1008.8 |
| 20260505232503 | 76 | 255 | 1.0 | 5.0 | 0.00 | 0.00 | 0.00 | 46 | 1008.9 |
| 20260505232000 | 76 | 60 | 3.0 | 10.0 | 0.00 | 0.00 | 0.00 | 44 | 1008.9 |
| 20260505231457 | 77 | 283 | 0.0 | 3.0 | 0.00 | 0.00 | 0.00 | 43 | 1008.7 |
| 20260505230955 | 77 | 26 | 0.0 | 3.0 | 0.00 | 0.00 | 0.00 | 43 | 1008.5 |
| 20260505230452 | 77 | 18 | 2.0 | 5.0 | 0.00 | 0.00 | 0.00 | 43 | 1008.6 |
| 20260505225948 | 77 | 271 | 1.0 | 5.0 | 0.00 | 0.00 | 0.00 | 41 | 1008.5 |
| 20260505225446 | 77 | 262 | 1.0 | 5.0 | 0.00 | 0.00 | 0.00 | 42 | 1008.5 |
| 20260505224942 | 77 | 313 | 2.0 | 5.0 | 0.00 | 0.00 | 0.00 | 41 | 1008.6 |
| 20260505224439 | 78 | 276 | 1.0 | 6.0 | 0.00 | 0.00 | 0.00 | 39 | 1008.4 |
| 20260505223936 | 77 | 320 | 2.0 | 2.0 | 0.00 | 0.00 | 0.00 | 39 | 1008.3 |
| 20260505223433 | 77 | 1 | 1.0 | 7.0 | 0.00 | 0.00 | 0.00 | 41 | 1008.4 |
| 20260505222929 | 77 | 237 | 4.0 | 8.0 | 0.00 | 0.00 | 0.00 | 39 | 1008.4 |
| 20260505222425 | 78 | 43 | 0.0 | 3.0 | 0.00 | 0.00 | 0.00 | 39 | 1008.5 |